Regional Weather Roundup
Issued by NWS

Home | Current Version | Previous Version | Graphics & Text | Print | Product List | Glossary On
Versions: 1 2 3 4 5 6 7 8 9 10 11 12 13 14 15 16 17 18 19 20 21 22 23 24 25 26 27 28 29 30 31 32 33 34 35 36 37 38 39 40 41 42 43 44 45 46 47 48 49 50
000
ASUS43 KFSD 202310
RWRSD

WEATHER ROUNDUP FOR SOUTH DAKOTA
NATIONAL WEATHER SERVICE SIOUX FALLS SD
600 PM CDT SUN APR 20 2014

NOTE: "FAIR" INDICATES FEW OR NO CLOUDS BELOW 12,000 FEET WITH NO
SIGNIFICANT WEATHER AND/OR OBSTRUCTIONS TO VISIBILITY.


SDZ001>005-009-010-012>017-210000-
NORTHWEST AND NORTH CENTRAL SOUTH DAKOTA

CITY           SKY/WX    TMP DP  RH WIND       PRES   REMARKS
BUFFALO          N/A     67  23  19 NW22G30   29.94R
FAITH            N/A     68  32  26 NW21      29.93R
MOBRIDGE       PTSUNNY   76  33  21 S6        29.85S
$$

SDZ012>016-024>037-041>051-057-063-072>074-210000-
SOUTHWEST AND SOUTH CENTRAL SOUTH DAKOTA

CITY           SKY/WX    TMP DP  RH WIND       PRES   REMARKS
RAPID CTY ARPT PTSUNNY   67  31  26 N24G36    29.98R
PIERRE         MOSUNNY   78  45  30 SE3       29.82S
CUSTER         PTSUNNY   62  36  37 CALM      30.04R
ELLSWORTH AFB  PTSUNNY   65  30  26 N28       29.98R
PHILIP         MOSUNNY   79  37  22 NW20G28   29.87R
PINE RIDGE     MOSUNNY   76  32  20 N9        29.91S
SPEARFISH      FAIR      63  32  31 NW17      30.06R
WINNER         FAIR      83  40  21 S13G22    29.84F
$$

SDZ004>011-016>023-039-040-210000-
NORTHEAST SOUTH DAKOTA

CITY           SKY/WX    TMP DP  RH WIND       PRES   REMARKS
ABERDEEN       MOSUNNY   76  28  17 S10       29.87F
WATERTOWN      SUNNY     73  33  23 SE12      29.91F
SISSETON         N/A     74  31  20 S16       29.90F
$$

SDZ017-020-022-023-036>040-048>070-210000-
SOUTHEAST SOUTH DAKOTA

CITY           SKY/WX    TMP DP  RH WIND       PRES   REMARKS
SIOUX FALLS    MOSUNNY   78  48  34 S7        29.86F
HURON          SUNNY     80  38  22 S8        29.84F
CHAMBERLAIN      N/A     81  41  24 S9        29.85F
MITCHELL       SUNNY     82  40  22 S7        29.85S
YANKTON        MOSUNNY   81  54  39 SE5       29.86F
$$

ABBREVIATIONS USED IN REMARKS
   TC - TEMPERATURE IN CELSIUS
  WCI - WIND CHILL INDEX
   HX - HEAT INDEX
  VSB - VISIBILITY




USA.gov is the U.S. government's official web portal to all federal, state and local government web resources and services.